RLU327 ULLI-UUDL

Flight info

Callsign RLU327
Flight time 1h 8m
Altitude 31000
Route SUGIN1D SUGIN T824 GIKEN T786 GOBOM T617 MAGOK MAGOK2K
Aircraft E145/M-SABDFGRW/S

Departure

Time 2026-04-15 21:17
Airport Pulkovo Airport (ULLI)

Arrival

Time 2026-04-15 22:26
Airport Golden Ring Yaroslavl International Airport (UUDL)
Time Latitude Longitude Altitude Speed Heading
2026-04-15 20:45 59.79593 30.26183 83 ft 0 kts 106°
2026-04-15 21:10 59.79588 30.26215 83 ft 6 kts 106°
2026-04-15 21:10 59.79609 30.26295 83 ft 8 kts 21°
2026-04-15 21:10 59.79669 30.26332 83 ft 9 kts 16°
2026-04-15 21:10 59.79741 30.26374 83 ft 11 kts 16°
2026-04-15 21:11 59.79823 30.26421 83 ft 12 kts 16°
2026-04-15 21:11 59.79914 30.26476 83 ft 14 kts 16°
2026-04-15 21:11 59.80014 30.26534 83 ft 15 kts 16°
2026-04-15 21:11 59.80125 30.26600 83 ft 17 kts 16°
2026-04-15 21:12 59.80233 30.26664 83 ft 16 kts 16°
2026-04-15 21:12 59.80315 30.26711 83 ft 8 kts 16°
2026-04-15 21:12 59.80373 30.26745 83 ft 8 kts 16°
2026-04-15 21:12 59.80421 30.26699 83 ft 9 kts 289°
2026-04-15 21:13 59.80442 30.26559 83 ft 11 kts 286°
2026-04-15 21:13 59.80466 30.26401 83 ft 12 kts 286°
2026-04-15 21:13 59.80493 30.26222 83 ft 14 kts 286°
2026-04-15 21:13 59.80523 30.26026 83 ft 15 kts 286°
2026-04-15 21:14 59.80554 30.25811 83 ft 16 kts 287°
2026-04-15 21:14 59.80589 30.25580 83 ft 18 kts 286°
2026-04-15 21:14 59.80626 30.25332 83 ft 19 kts 286°
2026-04-15 21:14 59.80666 30.25070 83 ft 20 kts 286°
2026-04-15 21:15 59.80690 30.24909 83 ft 11 kts 286°
2026-04-15 21:15 59.80714 30.24746 83 ft 13 kts 286°
2026-04-15 21:15 59.80769 30.24607 83 ft 14 kts 345°
2026-04-15 21:15 59.80870 30.24560 83 ft 15 kts 349°
2026-04-15 21:16 59.80950 30.24586 83 ft 12 kts 57°
2026-04-15 21:16 59.80943 30.24762 83 ft 16 kts 105°
2026-04-15 21:16 59.80856 30.25338 83 ft 76 kts 106°
2026-04-15 21:16 59.80646 30.26750 84 ft 134 kts 106°
2026-04-15 21:17 59.80352 30.28704 296 ft 152 kts 106°
2026-04-15 21:17 59.80011 30.30721 829 ft 157 kts 108°
2026-04-15 21:17 59.79692 30.32779 1374 ft 164 kts 105°
2026-04-15 21:17 59.79389 30.34971 2080 ft 166 kts 105°
2026-04-15 21:18 59.79076 30.37130 2758 ft 171 kts 107°
2026-04-15 21:18 59.78705 30.39645 2977 ft 204 kts 107°
2026-04-15 21:18 59.78293 30.42480 3297 ft 225 kts 107°
2026-04-15 21:18 59.77908 30.45522 3859 ft 233 kts 104°
2026-04-15 21:19 59.77591 30.48603 4730 ft 226 kts 103°
2026-04-15 21:19 59.77305 30.51659 5273 ft 235 kts 102°
2026-04-15 21:19 59.76997 30.54946 5723 ft 246 kts 102°
2026-04-15 21:19 59.76689 30.58285 6378 ft 249 kts 102°
2026-04-15 21:20 59.76382 30.61617 7049 ft 249 kts 102°
2026-04-15 21:20 59.76069 30.64998 7685 ft 252 kts 102°
2026-04-15 21:20 59.75754 30.68406 8320 ft 254 kts 103°
2026-04-15 21:20 59.75436 30.71825 8923 ft 256 kts 103°
2026-04-15 21:21 59.75113 30.75290 9542 ft 258 kts 104°
2026-04-15 21:21 59.74785 30.78795 10129 ft 260 kts 104°
2026-04-15 21:21 59.74458 30.82289 10664 ft 264 kts 104°
2026-04-15 21:21 59.74113 30.85950 11028 ft 274 kts 104°
2026-04-15 21:22 59.73759 30.89703 11390 ft 284 kts 104°
2026-04-15 21:22 59.73390 30.93601 11788 ft 292 kts 104°
2026-04-15 21:22 59.73011 30.97589 12147 ft 300 kts 103°
2026-04-15 21:22 59.72620 31.01699 12534 ft 306 kts 104°
2026-04-15 21:23 59.72225 31.05826 13033 ft 309 kts 104°
2026-04-15 21:23 59.71821 31.10032 13504 ft 312 kts 104°
2026-04-15 21:23 59.71411 31.14287 13998 ft 314 kts 104°
2026-04-15 21:23 59.70999 31.18556 14445 ft 317 kts 104°
2026-04-15 21:24 59.70584 31.22829 14883 ft 319 kts 104°
2026-04-15 21:24 59.70163 31.27144 15350 ft 321 kts 104°
2026-04-15 21:24 59.69740 31.31476 15755 ft 325 kts 104°
2026-04-15 21:24 59.69307 31.35889 16179 ft 327 kts 104°
2026-04-15 21:25 59.68876 31.40266 16576 ft 330 kts 104°
2026-04-15 21:25 59.68433 31.44748 17001 ft 333 kts 104°
2026-04-15 21:25 59.67986 31.49253 17390 ft 335 kts 104°
2026-04-15 21:25 59.67538 31.53757 17796 ft 337 kts 104°
2026-04-15 21:26 59.67101 31.58146 18674 ft 323 kts 104°
2026-04-15 21:26 59.66670 31.62444 19335 ft 317 kts 104°
2026-04-15 21:26 59.66239 31.66711 19677 ft 321 kts 105°
2026-04-15 21:26 59.65798 31.71078 20060 ft 324 kts 105°
2026-04-15 21:27 59.65354 31.75462 20462 ft 325 kts 105°
2026-04-15 21:27 59.64909 31.79838 20846 ft 327 kts 105°
2026-04-15 21:27 59.64463 31.84205 21256 ft 328 kts 104°
2026-04-15 21:27 59.64009 31.88643 21639 ft 330 kts 104°
2026-04-15 21:28 59.63556 31.93049 22029 ft 331 kts 104°
2026-04-15 21:28 59.63096 31.97508 22455 ft 331 kts 105°
2026-04-15 21:28 59.62635 32.01966 22936 ft 329 kts 105°
2026-04-15 21:28 59.62179 32.06350 23377 ft 328 kts 104°
2026-04-15 21:29 59.61723 32.10730 23815 ft 327 kts 104°
2026-04-15 21:29 59.61263 32.15123 24258 ft 326 kts 104°
2026-04-15 21:29 59.60803 32.19507 24692 ft 326 kts 104°
2026-04-15 21:29 59.60344 32.23863 25104 ft 326 kts 104°
2026-04-15 21:30 59.59885 32.28205 25503 ft 326 kts 104°
2026-04-15 21:30 59.59430 32.32501 25938 ft 324 kts 104°
2026-04-15 21:30 59.58965 32.36866 26353 ft 324 kts 104°
2026-04-15 21:30 59.58496 32.41262 26770 ft 323 kts 104°
2026-04-15 21:31 59.57562 32.49961 27585 ft 322 kts 104°
2026-04-15 21:31 59.57095 32.54291 27958 ft 322 kts 104°
2026-04-15 21:32 59.56166 32.62865 28714 ft 321 kts 104°
2026-04-15 21:32 59.55702 32.67122 29081 ft 320 kts 105°
2026-04-15 21:32 59.55232 32.71422 29450 ft 319 kts 105°
2026-04-15 21:32 59.54764 32.75697 29818 ft 319 kts 105°
2026-04-15 21:33 59.54296 32.79949 30175 ft 318 kts 105°
2026-04-15 21:33 59.53829 32.84176 30493 ft 318 kts 105°
2026-04-15 21:33 59.53359 32.88432 30848 ft 318 kts 104°
2026-04-15 21:33 59.52892 32.92632 31167 ft 318 kts 104°
2026-04-15 21:34 59.52416 32.96905 31211 ft 325 kts 104°
2026-04-15 21:34 59.51424 33.05754 31221 ft 337 kts 104°
2026-04-15 21:35 59.50400 33.14841 31223 ft 349 kts 104°
2026-04-15 21:35 59.49326 33.24310 31218 ft 361 kts 104°
2026-04-15 21:36 59.48214 33.34037 31221 ft 371 kts 104°
2026-04-15 21:36 59.47062 33.44049 31226 ft 381 kts 104°
2026-04-15 21:37 59.45872 33.54309 31233 ft 390 kts 104°
2026-04-15 21:37 59.44652 33.64747 31230 ft 397 kts 103°
2026-04-15 21:38 59.43397 33.75404 31234 ft 404 kts 104°
2026-04-15 21:38 59.42116 33.86205 31229 ft 411 kts 104°
2026-04-15 21:39 59.40806 33.97158 31226 ft 417 kts 104°
2026-04-15 21:39 59.39469 34.08252 31224 ft 422 kts 104°
2026-04-15 21:40 59.38109 34.19453 31226 ft 426 kts 104°
2026-04-15 21:40 59.36736 34.30667 31223 ft 425 kts 104°
2026-04-15 21:41 59.35350 34.41895 31223 ft 422 kts 104°
2026-04-15 21:41 59.33974 34.52964 31224 ft 420 kts 104°
2026-04-15 21:42 59.32593 34.63988 31226 ft 418 kts 104°
2026-04-15 21:42 59.31197 34.75045 31227 ft 417 kts 104°
2026-04-15 21:43 59.29799 34.86043 31231 ft 418 kts 104°
2026-04-15 21:43 59.28379 34.97125 31236 ft 419 kts 104°
2026-04-15 21:44 59.26955 35.08158 31236 ft 419 kts 104°
2026-04-15 21:44 59.25525 35.19152 31233 ft 420 kts 104°
2026-04-15 21:45 59.24078 35.30200 31245 ft 419 kts 104°
2026-04-15 21:45 59.22637 35.41123 31251 ft 419 kts 104°
2026-04-15 21:46 59.21183 35.52065 31248 ft 419 kts 104°
2026-04-15 21:46 59.19710 35.63071 31253 ft 418 kts 104°
2026-04-15 21:47 59.18236 35.74002 31257 ft 418 kts 104°
2026-04-15 21:47 59.16759 35.84883 31258 ft 418 kts 104°
2026-04-15 21:48 59.15264 35.95815 31266 ft 418 kts 104°
2026-04-15 21:48 59.13766 36.06697 31272 ft 418 kts 104°
2026-04-15 21:49 59.12254 36.17599 31264 ft 419 kts 104°
2026-04-15 21:49 59.10732 36.28506 31267 ft 419 kts 104°
2026-04-15 21:50 59.09207 36.39353 31257 ft 419 kts 104°
2026-04-15 21:50 59.07656 36.50317 31256 ft 419 kts 104°
2026-04-15 21:51 59.06111 36.61155 31259 ft 418 kts 104°
2026-04-15 21:51 59.04549 36.72047 31258 ft 418 kts 104°
2026-04-15 21:52 59.02992 36.82826 31262 ft 418 kts 104°
2026-04-15 21:52 59.01423 36.93618 31264 ft 418 kts 104°
2026-04-15 21:53 58.99835 37.04467 31267 ft 418 kts 104°
2026-04-15 21:53 58.98250 37.15230 31268 ft 418 kts 104°
2026-04-15 21:54 58.96653 37.25997 31264 ft 418 kts 104°
2026-04-15 21:54 58.95042 37.36792 31264 ft 418 kts 104°
2026-04-15 21:55 58.93429 37.47530 31263 ft 417 kts 104°
2026-04-15 21:55 58.91793 37.58347 31264 ft 417 kts 104°
2026-04-15 21:56 58.90166 37.69039 31274 ft 417 kts 105°
2026-04-15 21:56 58.88510 37.79856 31281 ft 417 kts 105°
2026-04-15 21:57 58.86794 37.90990 31277 ft 417 kts 105°
2026-04-15 21:57 58.85068 38.02113 31282 ft 417 kts 105°
2026-04-15 21:58 58.83360 38.13050 31282 ft 417 kts 105°
2026-04-15 21:58 58.81667 38.23824 31280 ft 417 kts 105°
2026-04-15 21:59 58.79950 38.34676 31287 ft 417 kts 105°
2026-04-15 21:59 58.78223 38.45526 31288 ft 417 kts 105°
2026-04-15 22:00 58.76516 38.56186 31282 ft 417 kts 105°
2026-04-15 22:00 58.74781 38.66954 31286 ft 417 kts 106°
2026-04-15 22:01 58.73054 38.77611 31289 ft 418 kts 106°
2026-04-15 22:01 58.70694 38.87973 31293 ft 420 kts 121°
2026-04-15 22:01 58.69079 38.92576 30905 ft 413 kts 124°
2026-04-15 22:02 58.67331 38.96885 30352 ft 402 kts 127°
2026-04-15 22:02 58.65587 39.00928 29799 ft 392 kts 128°
2026-04-15 22:02 58.63862 39.04842 29252 ft 383 kts 128°
2026-04-15 22:02 58.62147 39.08696 28699 ft 375 kts 128°
2026-04-15 22:03 58.60475 39.12439 28150 ft 367 kts 129°
2026-04-15 22:03 58.58849 39.16073 27607 ft 360 kts 129°
2026-04-15 22:03 58.57243 39.19653 27063 ft 354 kts 129°
2026-04-15 22:03 58.55630 39.23243 26518 ft 351 kts 129°
2026-04-15 22:04 58.54054 39.26745 25985 ft 349 kts 129°
2026-04-15 22:04 58.52475 39.30249 25449 ft 349 kts 129°
2026-04-15 22:04 58.50897 39.33747 24930 ft 352 kts 129°
2026-04-15 22:04 58.49284 39.37315 24408 ft 357 kts 129°
2026-04-15 22:05 58.47646 39.40933 23890 ft 364 kts 129°
2026-04-15 22:05 58.45981 39.44606 23371 ft 370 kts 129°
2026-04-15 22:05 58.44287 39.48334 22855 ft 375 kts 129°
2026-04-15 22:05 58.42599 39.52045 22335 ft 372 kts 129°
2026-04-15 22:06 58.40920 39.55729 21818 ft 371 kts 129°
2026-04-15 22:06 58.39241 39.59409 21300 ft 368 kts 129°
2026-04-15 22:06 58.37563 39.63080 20778 ft 366 kts 129°
2026-04-15 22:06 58.35931 39.66646 20268 ft 362 kts 130°
2026-04-15 22:07 58.34095 39.69915 19738 ft 358 kts 147°
2026-04-15 22:07 58.31815 39.71632 19239 ft 352 kts 168°
2026-04-15 22:07 58.29422 39.72332 18739 ft 344 kts 169°
2026-04-15 22:07 58.27086 39.72986 18226 ft 337 kts 170°
2026-04-15 22:08 58.24793 39.73613 17715 ft 331 kts 170°
2026-04-15 22:08 58.22561 39.74219 17209 ft 325 kts 170°
2026-04-15 22:08 58.20362 39.74812 16704 ft 320 kts 170°
2026-04-15 22:08 58.18174 39.75401 16193 ft 316 kts 170°
2026-04-15 22:09 58.16035 39.75976 15691 ft 311 kts 170°
2026-04-15 22:09 58.13900 39.76549 15103 ft 301 kts 170°
2026-04-15 22:09 58.11889 39.77088 14294 ft 295 kts 170°
2026-04-15 22:09 58.09866 39.77631 13522 ft 294 kts 170°
2026-04-15 22:10 58.07856 39.78169 13036 ft 292 kts 170°
2026-04-15 22:10 58.05875 39.78698 12535 ft 290 kts 169°
2026-04-15 22:10 58.03867 39.78965 12023 ft 291 kts 183°
2026-04-15 22:10 58.01872 39.78421 11586 ft 288 kts 186°
2026-04-15 22:11 57.99907 39.77877 11193 ft 290 kts 186°
2026-04-15 22:11 57.97929 39.77327 10842 ft 286 kts 185°
2026-04-15 22:11 57.95963 39.76780 10527 ft 282 kts 185°
2026-04-15 22:11 57.94060 39.76252 10254 ft 278 kts 185°
2026-04-15 22:12 57.92139 39.75719 9999 ft 279 kts 185°
2026-04-15 22:12 57.90227 39.75190 9753 ft 282 kts 185°
2026-04-15 22:12 57.88280 39.74651 9507 ft 284 kts 185°
2026-04-15 22:12 57.86333 39.74112 9255 ft 280 kts 185°
2026-04-15 22:13 57.84452 39.73591 9002 ft 275 kts 185°
2026-04-15 22:13 57.82589 39.73077 8748 ft 270 kts 185°
2026-04-15 22:13 57.80738 39.72567 8490 ft 263 kts 185°
2026-04-15 22:13 57.78968 39.72080 8234 ft 257 kts 185°
2026-04-15 22:14 57.77216 39.71598 7977 ft 251 kts 185°
2026-04-15 22:14 57.75504 39.71127 7720 ft 246 kts 185°
2026-04-15 22:14 57.73826 39.70667 7468 ft 242 kts 185°
2026-04-15 22:14 57.72190 39.70218 7212 ft 238 kts 185°
2026-04-15 22:15 57.70562 39.69772 6959 ft 235 kts 185°
2026-04-15 22:15 57.68956 39.69332 6704 ft 232 kts 185°
2026-04-15 22:15 57.67366 39.68897 6444 ft 229 kts 185°
2026-04-15 22:15 57.65791 39.68467 6185 ft 227 kts 184°
2026-04-15 22:16 57.64252 39.68046 5930 ft 224 kts 184°
2026-04-15 22:16 57.62725 39.67629 5743 ft 218 kts 184°
2026-04-15 22:16 57.61239 39.67224 5479 ft 214 kts 184°
2026-04-15 22:16 57.59788 39.66828 5219 ft 209 kts 184°
2026-04-15 22:17 57.58372 39.66443 4956 ft 204 kts 184°
2026-04-15 22:17 57.56987 39.66066 4697 ft 199 kts 184°
2026-04-15 22:17 57.55636 39.65699 4431 ft 195 kts 184°
2026-04-15 22:17 57.54297 39.65336 4159 ft 195 kts 184°
2026-04-15 22:18 57.52953 39.64972 3895 ft 196 kts 184°
2026-04-15 22:18 57.51603 39.64607 3655 ft 198 kts 184°
2026-04-15 22:18 57.50225 39.64233 3431 ft 199 kts 184°
2026-04-15 22:18 57.48899 39.64368 3171 ft 190 kts 154°
2026-04-15 22:19 57.47981 39.66006 2898 ft 185 kts 115°
2026-04-15 22:19 57.47744 39.68351 2656 ft 187 kts 98°
2026-04-15 22:19 57.47639 39.70752 2443 ft 187 kts 96°
2026-04-15 22:19 57.47567 39.73128 2238 ft 182 kts 96°
2026-04-15 22:20 57.47506 39.75409 2182 ft 173 kts 96°
2026-04-15 22:20 57.47449 39.77652 2187 ft 174 kts 96°
2026-04-15 22:20 57.47394 39.79899 2188 ft 176 kts 96°
2026-04-15 22:20 57.47338 39.82164 2188 ft 177 kts 96°
2026-04-15 22:21 57.47586 39.84415 2191 ft 184 kts 69°
2026-04-15 22:21 57.48175 39.86544 2189 ft 186 kts 69°
2026-04-15 22:21 57.48743 39.88618 2170 ft 173 kts 69°
2026-04-15 22:21 57.49252 39.90470 2205 ft 153 kts 69°
2026-04-15 22:22 57.49720 39.92187 2169 ft 144 kts 70°
2026-04-15 22:22 57.50163 39.93809 2172 ft 136 kts 70°
2026-04-15 22:22 57.50592 39.95387 2186 ft 136 kts 70°
2026-04-15 22:22 57.51010 39.96921 2169 ft 128 kts 70°
2026-04-15 22:23 57.51413 39.98419 2142 ft 129 kts 71°
2026-04-15 22:23 57.51829 39.99972 1951 ft 140 kts 70°
2026-04-15 22:23 57.52261 40.01570 1659 ft 134 kts 70°
2026-04-15 22:23 57.52660 40.03054 1428 ft 125 kts 69°
2026-04-15 22:24 57.53045 40.04494 1180 ft 131 kts 68°
2026-04-15 22:24 57.53467 40.06062 1057 ft 138 kts 67°
2026-04-15 22:24 57.53899 40.07674 911 ft 138 kts 66°
2026-04-15 22:24 57.54328 40.09276 740 ft 140 kts 65°
2026-04-15 22:25 57.54767 40.10907 625 ft 143 kts 65°
2026-04-15 22:25 57.55197 40.12517 422 ft 135 kts 65°
2026-04-15 22:25 57.55611 40.14055 290 ft 128 kts 63°
2026-04-15 22:25 57.55944 40.15301 286 ft 82 kts 63°
2026-04-15 22:26 57.56119 40.15937 290 ft 39 kts 62°
2026-04-15 22:26 57.56210 40.16277 292 ft 26 kts 64°
2026-04-15 22:26 57.56291 40.16589 294 ft 26 kts 64°
2026-04-15 22:26 57.56373 40.16901 295 ft 26 kts 63°
2026-04-15 22:27 57.56456 40.17213 296 ft 26 kts 64°
2026-04-15 22:27 57.56525 40.17473 296 ft 18 kts 63°
2026-04-15 22:27 57.56546 40.17590 296 ft 6 kts 110°
2026-04-15 22:27 57.56502 40.17639 296 ft 8 kts 156°
2026-04-15 22:28 57.56445 40.17671 295 ft 7 kts 185°
2026-04-15 22:28 57.56400 40.17654 295 ft 4 kts 194°
2026-04-15 22:28 57.56375 40.17641 295 ft 3 kts 199°
2026-04-15 22:28 57.56361 40.17632 295 ft 0 kts 199°